TimeAKST,TemperatureF,Dew PointF,Humidity,Sea Level PressureIn,VisibilityMPH,Wind Direction,Wind SpeedMPH,Gust SpeedMPH,PrecipitationIn,Events,Conditions,WindDirDegrees,DateUTC
12:53 AM,9.0,1.9,73,30.20,10.0,Variable,4.6,-,N/A,,Clear,0,2013-11-28 09:53:00
1:53 AM,6.1,-0.9,73,30.20,10.0,Calm,Calm,-,N/A,,Clear,0,2013-11-28 10:53:00
2:53 AM,6.1,-0.9,73,30.19,10.0,North,4.6,-,N/A,,Clear,350,2013-11-28 11:53:00
3:53 AM,3.9,-2.0,76,30.19,10.0,Calm,Calm,-,N/A,,Clear,0,2013-11-28 12:53:00
4:53 AM,1.0,-5.1,75,30.19,10.0,Calm,Calm,-,N/A,,Clear,0,2013-11-28 13:53:00
5:53 AM,-2.0,-7.1,79,30.19,10.0,Calm,Calm,-,N/A,,Clear,0,2013-11-28 14:53:00
6:53 AM,-2.9,-8.0,79,30.19,10.0,Calm,Calm,-,N/A,,Clear,0,2013-11-28 15:53:00
7:53 AM,-2.9,-8.0,79,30.19,10.0,North,4.6,-,N/A,,Clear,350,2013-11-28 16:53:00
8:53 AM,-5.1,-9.0,83,30.19,10.0,Calm,Calm,-,N/A,,Clear,0,2013-11-28 17:53:00
9:53 AM,-6.0,-9.9,83,30.19,10.0,Calm,Calm,-,N/A,,Clear,0,2013-11-28 18:53:00
10:53 AM,-7.1,-11.0,83,30.17,10.0,Calm,Calm,-,N/A,,Clear,0,2013-11-28 19:53:00
11:53 AM,-4.0,-7.1,87,30.17,10.0,Calm,Calm,-,N/A,,Clear,0,2013-11-28 20:53:00
12:53 PM,-2.0,-7.1,79,30.19,10.0,North,4.6,-,N/A,,Clear,350,2013-11-28 21:53:00
1:53 PM,3.0,-2.0,80,30.20,10.0,NW,3.5,-,N/A,,Clear,320,2013-11-28 22:53:00
2:53 PM,1.9,-2.9,80,30.20,10.0,Calm,Calm,-,N/A,,Scattered Clouds,0,2013-11-28 23:53:00
3:53 PM,-0.9,-5.1,83,30.19,10.0,Calm,Calm,-,N/A,,Mostly Cloudy,0,2013-11-29 00:53:00
4:53 PM,-0.9,-5.1,83,30.18,10.0,Calm,Calm,-,N/A,,Mostly Cloudy,0,2013-11-29 01:53:00
5:53 PM,-0.9,-6.0,79,30.18,10.0,Calm,Calm,-,N/A,,Overcast,0,2013-11-29 02:53:00
6:53 PM,1.0,-4.0,79,30.19,10.0,North,3.5,-,N/A,,Overcast,10,2013-11-29 03:53:00
7:53 PM,-0.9,-5.1,83,30.18,10.0,Calm,Calm,-,N/A,,Overcast,0,2013-11-29 04:53:00
8:53 PM,-0.9,-5.1,83,30.18,10.0,Calm,Calm,-,N/A,,Overcast,0,2013-11-29 05:53:00
9:53 PM,1.9,-2.9,80,30.19,6.0,Calm,Calm,-,0.00,Snow,Light Snow,0,2013-11-29 06:53:00
10:39 PM,6.8,3.2,85,30.17,6.0,NNE,4.6,-,0.00,Snow,Light Snow,20,2013-11-29 07:39:00
10:53 PM,9.0,6.1,88,30.19,6.0,Calm,Calm,-,0.00,Snow,Light Snow,0,2013-11-29 07:53:00
11:23 PM,12.2,8.6,85,30.19,6.0,Calm,Calm,-,0.00,Snow,Light Snow,0,2013-11-29 08:23:00
11:53 PM,12.0,8.1,84,30.19,4.0,Calm,Calm,-,0.00,Snow,Light Snow,0,2013-11-29 08:53:00